Zurück zum Katalog

SL-19 DEB

AktivUNKNOWN
NORAD 23486·DEBRIS·🇷🇺 Russia

Gestartet Dec 26, 1994 von Baikonur Cosmodrome

Loading…

Nächste Überflüge (nächste 24 Stunden)

TLE

AktuellSource: Space-Track

Epoche: Sep 14, 2026, 05:05 UTC

1 23486U 94085J   26257.21221221  .00000220  00000-0  75039-2 0  9994
2 23486  64.9197 340.5856 0190597 223.4069 164.4436 11.25793544613165

Verfolge SL-19 DEB in Echtzeit mit AllMySat

Download on the App Store